Location: Mannheim
(49.4880°N, 8.4650°E)
Time: 04:58:08
(UTC+02:00)

ISS - Pass Details

Date: 23 May 2022
Orbit: 414 x 420 km, 51.6° (Epoch: 03 July)

Event Time Altitude Azimuth Distance (km) Brightness Sun altitude
Rises 23:09:47 0° 287° (WNW) 2,369 0.9 -13.8°
Reaches altitude 10° 23:11:53 10° 288° (WNW) 1,502 -0.2 -14.0°
Maximum altitude 23:15:16 87° 19° (NNE) 424 -3.8 -14.3°
Enters shadow 23:17:17 22° 106° (ESE) 962 -2.4 -14.5°
